Wetterdaten: Dienstag, 28.05.2013
Datum Zeit Temperatur Luftfeuchte Luftdruck Regen Wind Richtung Richtung Taupunkt Windchill Windben
28.05.2013 00:00 3,6 C 85 % 1012,2 hPa 0,0 l/m 0,0 km/h (0 Bft) N-NO 22 1,3 C 3,1 C 0,0 km/h (0 Bft)
28.05.2013 00:05 3,4 C 85 % 1011,9 hPa 0,0 l/m 0,0 km/h (0 Bft) W-NW 292 1,1 C 3,0 C 0,0 km/h (0 Bft)
28.05.2013 00:10 3,3 C 85 % 1011,9 hPa 0,0 l/m 0,0 km/h (0 Bft) NO 45 1,0 C 2,8 C 0,0 km/h (0 Bft)
28.05.2013 00:15 3,3 C 85 % 1011,9 hPa 0,0 l/m 0,0 km/h (0 Bft) NO 45 1,0 C 2,7 C 0,0 km/h (0 Bft)
28.05.2013 00:20 3,6 C 86 % 1011,9 hPa 0,0 l/m 0,0 km/h (0 Bft) NO 45 1,5 C 2,8 C 0,0 km/h (0 Bft)
28.05.2013 00:25 3,8 C 86 % 1011,9 hPa 0,0 l/m 0,0 km/h (0 Bft) O 90 1,7 C 3,1 C 0,0 km/h (0 Bft)
28.05.2013 00:30 3,6 C 86 % 1011,9 hPa 0,0 l/m 0,0 km/h (0 Bft) W-SW 247 1,5 C 3,3 C 0,0 km/h (0 Bft)
28.05.2013 00:35 3,6 C 87 % 1011,9 hPa 0,0 l/m 0,0 km/h (0 Bft) N 360 1,6 C 3,2 C 0,0 km/h (0 Bft)
28.05.2013 00:40 3,5 C 87 % 1011,9 hPa 0,0 l/m 0,0 km/h (0 Bft) N 360 1,5 C 3,0 C 0,0 km/h (0 Bft)
28.05.2013 00:45 3,6 C 88 % 1011,8 hPa 0,0 l/m 0,3 km/h (0 Bft) O-NO 67 1,8 C 3,0 C 0,0 km/h (0 Bft)
28.05.2013 00:50 3,4 C 88 % 1011,8 hPa 0,0 l/m 0,3 km/h (0 Bft) N-NW 337 1,6 C 3,0 C 0,0 km/h (0 Bft)
28.05.2013 00:55 3,2 C 87 % 1011,8 hPa 0,0 l/m 0,2 km/h (0 Bft) N-NW 337 1,2 C 2,8 C 0,0 km/h (0 Bft)
28.05.2013 01:00 3,1 C 87 % 1011,8 hPa 0,0 l/m 0,0 km/h (0 Bft) S 180 1,2 C 2,7 C 0,0 km/h (0 Bft)
28.05.2013 01:05 3,1 C 87 % 1011,6 hPa 0,0 l/m 0,0 km/h (0 Bft) NO 45 1,2 C 2,6 C 0,0 km/h (0 Bft)
28.05.2013 01:10 2,9 C 88 % 1011,6 hPa 0,0 l/m 0,0 km/h (0 Bft) O 90 1,1 C 2,5 C 0,0 km/h (0 Bft)
28.05.2013 01:15 2,9 C 88 % 1011,6 hPa 0,0 l/m 0,0 km/h (0 Bft) O 90 1,1 C 2,5 C 0,0 km/h (0 Bft)
28.05.2013 01:20 3,0 C 88 % 1011,6 hPa 0,0 l/m 0,0 km/h (0 Bft) O-SO 112 1,2 C 2,4 C 0,0 km/h (0 Bft)
28.05.2013 01:25 2,9 C 88 % 1011,3 hPa 0,0 l/m 0,0 km/h (0 Bft) O 90 1,1 C 2,3 C 0,0 km/h (0 Bft)
28.05.2013 01:30 2,9 C 88 % 1011,3 hPa 0,0 l/m 0,0 km/h (0 Bft) O-NO 67 1,1 C 2,3 C 0,0 km/h (0 Bft)
28.05.2013 01:35 2,8 C 88 % 1011,3 hPa 0,0 l/m 0,0 km/h (0 Bft) W-SW 247 1,0 C 2,2 C 0,0 km/h (0 Bft)
28.05.2013 01:40 2,9 C 89 % 1011,3 hPa 0,0 l/m 0,0 km/h (0 Bft) O 90 1,3 C 2,1 C 0,0 km/h (0 Bft)
28.05.2013 01:45 2,9 C 89 % 1011,1 hPa 0,0 l/m 0,0 km/h (0 Bft) O 90 1,3 C 2,2 C 0,0 km/h (0 Bft)
28.05.2013 01:50 2,7 C 89 % 1011,1 hPa 0,0 l/m 0,0 km/h (0 Bft) W-SW 247 1,1 C 2,2 C 0,0 km/h (0 Bft)
28.05.2013 01:55 2,5 C 89 % 1011,1 hPa 0,0 l/m 0,0 km/h (0 Bft) W-SW 247 0,9 C 2,1 C 0,0 km/h (0 Bft)
28.05.2013 02:00 2,4 C 89 % 1011,1 hPa 0,0 l/m 0,0 km/h (0 Bft) O 90 0,8 C 1,9 C 0,0 km/h (0 Bft)
28.05.2013 02:05 2,6 C 89 % 1011,0 hPa 0,0 l/m 0,0 km/h (0 Bft) NO 45 1,0 C 1,8 C 0,0 km/h (0 Bft)
28.05.2013 02:10 2,6 C 89 % 1011,0 hPa 0,0 l/m 0,0 km/h (0 Bft) O 90 1,0 C 1,8 C 0,0 km/h (0 Bft)
28.05.2013 02:15 2,6 C 89 % 1011,0 hPa 0,0 l/m 0,0 km/h (0 Bft) O 90 1,0 C 1,8 C 0,0 km/h (0 Bft)
28.05.2013 02:20 2,5 C 89 % 1011,0 hPa 0,0 l/m 0,0 km/h (0 Bft) N-NW 337 0,9 C 1,8 C 0,0 km/h (0 Bft)
28.05.2013 02:25 2,4 C 89 % 1010,8 hPa 0,0 l/m 0,0 km/h (0 Bft) W-NW 292 0,8 C 1,7 C 0,0 km/h (0 Bft)
28.05.2013 02:30 2,3 C 89 % 1010,8 hPa 0,0 l/m 0,0 km/h (0 Bft) W-NW 292 0,7 C 1,7 C 0,0 km/h (0 Bft)
28.05.2013 02:35 2,2 C 89 % 1010,8 hPa 0,0 l/m 0,0 km/h (0 Bft) NO 45 0,6 C 1,6 C 0,0 km/h (0 Bft)
28.05.2013 02:40 2,5 C 89 % 1010,8 hPa 0,0 l/m 0,0 km/h (0 Bft) O 90 0,9 C 1,6 C 0,0 km/h (0 Bft)
28.05.2013 02:45 2,2 C 89 % 1010,8 hPa 0,0 l/m 0,0 km/h (0 Bft) W-NW 292 0,6 C 1,6 C 0,0 km/h (0 Bft)
28.05.2013 02:50 2,0 C 89 % 1010,8 hPa 0,0 l/m 0,0 km/h (0 Bft) N 360 0,4 C 1,6 C 0,0 km/h (0 Bft)
28.05.2013 02:55 2,1 C 89 % 1010,8 hPa 0,0 l/m 0,0 km/h (0 Bft) N 360 0,5 C 1,4 C 0,0 km/h (0 Bft)
28.05.2013 03:00 2,1 C 89 % 1010,8 hPa 0,0 l/m 0,0 km/h (0 Bft) O 90 0,5 C 1,4 C 0,0 km/h (0 Bft)
28.05.2013 03:05 2,4 C 90 % 1010,3 hPa 0,0 l/m 0,0 km/h (0 Bft) N-NO 22 0,9 C 1,4 C 0,0 km/h (0 Bft)
28.05.2013 03:10 2,4 C 91 % 1010,3 hPa 0,0 l/m 0,0 km/h (0 Bft) O-SO 112 1,1 C 1,5 C 0,0 km/h (0 Bft)
28.05.2013 03:15 2,4 C 91 % 1010,3 hPa 0,0 l/m 0,0 km/h (0 Bft) O-SO 112 1,1 C 1,5 C 0,0 km/h (0 Bft)
28.05.2013 03:20 2,4 C 91 % 1010,3 hPa 0,0 l/m 0,0 km/h (0 Bft) NO 45 1,1 C 1,6 C 0,0 km/h (0 Bft)
28.05.2013 03:25 2,4 C 91 % 1010,2 hPa 0,0 l/m 0,0 km/h (0 Bft) S 180 1,1 C 1,6 C 0,0 km/h (0 Bft)
28.05.2013 03:30 2,6 C 91 % 1010,2 hPa 0,0 l/m 0,0 km/h (0 Bft) NO 45 1,3 C 2,0 C 0,0 km/h (0 Bft)
28.05.2013 03:35 2,7 C 91 % 1010,2 hPa 0,0 l/m 0,2 km/h (0 Bft) O-SO 112 1,4 C 2,0 C 0,0 km/h (0 Bft)
28.05.2013 03:40 2,7 C 91 % 1010,2 hPa 0,0 l/m 0,2 km/h (0 Bft) W-SW 247 1,4 C 2,2 C 0,0 km/h (0 Bft)
28.05.2013 03:45 2,7 C 91 % 1010,2 hPa 0,0 l/m 0,0 km/h (0 Bft) W-SW 247 1,4 C 2,3 C 0,0 km/h (0 Bft)
28.05.2013 03:50 2,7 C 91 % 1010,2 hPa 0,0 l/m 0,0 km/h (0 Bft) W 270 1,4 C 2,3 C 0,0 km/h (0 Bft)
28.05.2013 03:55 2,7 C 92 % 1010,2 hPa 0,0 l/m 0,0 km/h (0 Bft) N-NW 337 1,5 C 2,3 C 0,0 km/h (0 Bft)
28.05.2013 04:00 2,7 C 92 % 1010,1 hPa 0,0 l/m 0,0 km/h (0 Bft) N-NW 337 1,5 C 2,3 C 0,0 km/h (0 Bft)
28.05.2013 04:05 2,7 C 92 % 1010,1 hPa 0,0 l/m 0,0 km/h (0 Bft) N-NW 337 1,5 C 2,3 C 0,0 km/h (0 Bft)
28.05.2013 04:10 2,7 C 91 % 1010,1 hPa 0,0 l/m 0,0 km/h (0 Bft) N-NO 22 1,4 C 2,2 C 0,0 km/h (0 Bft)
28.05.2013 04:15 2,7 C 91 % 1010,1 hPa 0,0 l/m 0,0 km/h (0 Bft) N-NO 22 1,4 C 2,2 C 0,0 km/h (0 Bft)
28.05.2013 04:20 2,9 C 92 % 1010,1 hPa 0,0 l/m 0,0 km/h (0 Bft) N 360 1,7 C 2,3 C 0,0 km/h (0 Bft)
28.05.2013 04:25 2,9 C 92 % 1010,0 hPa 0,0 l/m 0,0 km/h (0 Bft) N-NO 22 1,7 C 2,4 C 0,0 km/h (0 Bft)
28.05.2013 04:30 3,0 C 91 % 1010,0 hPa 0,0 l/m 0,0 km/h (0 Bft) NO 45 1,7 C 2,5 C 0,0 km/h (0 Bft)
28.05.2013 04:35 3,2 C 91 % 1010,0 hPa 0,0 l/m 0,2 km/h (0 Bft) NO 45 1,9 C 2,6 C 0,0 km/h (0 Bft)
28.05.2013 04:40 3,1 C 91 % 1010,0 hPa 0,0 l/m 0,2 km/h (0 Bft) N-NO 22 1,8 C 2,6 C 0,0 km/h (0 Bft)
28.05.2013 04:45 3,1 C 91 % 1010,1 hPa 0,0 l/m 0,2 km/h (0 Bft) N-NO 22 1,8 C 2,6 C 0,0 km/h (0 Bft)
28.05.2013 04:50 3,0 C 91 % 1010,1 hPa 0,0 l/m 0,0 km/h (0 Bft) O-SO 112 1,7 C 2,6 C 0,0 km/h (0 Bft)
28.05.2013 04:55 2,9 C 92 % 1010,1 hPa 0,0 l/m 0,0 km/h (0 Bft) S-SW 202 1,7 C 2,6 C 0,0 km/h (0 Bft)
28.05.2013 05:00 2,8 C 92 % 1010,1 hPa 0,0 l/m 0,0 km/h (0 Bft) N-NO 22 1,6 C 2,4 C 0,0 km/h (0 Bft)
28.05.2013 05:05 2,6 C 92 % 1009,8 hPa 0,0 l/m 0,0 km/h (0 Bft) N-NO 22 1,4 C 2,3 C 0,0 km/h (0 Bft)
28.05.2013 05:10 2,6 C 92 % 1009,8 hPa 0,0 l/m 0,0 km/h (0 Bft) NW 315 1,4 C 2,2 C 0,0 km/h (0 Bft)
28.05.2013 05:15 2,6 C 92 % 1009,8 hPa 0,0 l/m 0,0 km/h (0 Bft) NW 315 1,4 C 2,2 C 0,0 km/h (0 Bft)
28.05.2013 05:20 2,7 C 92 % 1009,8 hPa 0,0 l/m 0,0 km/h (0 Bft) N 360 1,5 C 2,3 C 0,0 km/h (0 Bft)
28.05.2013 05:25 2,9 C 92 % 1009,8 hPa 0,0 l/m 0,0 km/h (0 Bft) N-NO 22 1,7 C 2,3 C 0,0 km/h (0 Bft)
28.05.2013 05:30 3,1 C 91 % 1009,8 hPa 0,0 l/m 0,0 km/h (0 Bft) NO 45 1,8 C 2,5 C 0,0 km/h (0 Bft)
28.05.2013 05:35 3,2 C 91 % 1009,8 hPa 0,0 l/m 0,0 km/h (0 Bft) NO 45 1,9 C 2,6 C 0,0 km/h (0 Bft)
28.05.2013 05:40 3,1 C 91 % 1009,8 hPa 0,0 l/m 0,0 km/h (0 Bft) NO 45 1,8 C 2,6 C 0,0 km/h (0 Bft)
28.05.2013 05:45 2,9 C 92 % 1009,9 hPa 0,0 l/m 0,0 km/h (0 Bft) N-NO 22 1,7 C 2,6 C 0,0 km/h (0 Bft)
28.05.2013 05:50 2,9 C 92 % 1009,9 hPa 0,0 l/m 0,0 km/h (0 Bft) NO 45 1,7 C 2,6 C 0,0 km/h (0 Bft)
28.05.2013 05:55 2,9 C 92 % 1009,9 hPa 0,0 l/m 0,0 km/h (0 Bft) N-NO 22 1,7 C 3,2 C 0,0 km/h (0 Bft)
28.05.2013 06:00 3,0 C 91 % 1009,9 hPa 0,0 l/m 0,0 km/h (0 Bft) N 360 1,7 C 3,4 C 0,0 km/h (0 Bft)
28.05.2013 06:05 3,2 C 91 % 1010,4 hPa 0,0 l/m 0,0 km/h (0 Bft) NO 45 1,9 C 3,4 C 0,0 km/h (0 Bft)
28.05.2013 06:10 3,2 C 91 % 1010,4 hPa 0,0 l/m 0,0 km/h (0 Bft) N-NO 22 1,9 C 3,4 C 0,0 km/h (0 Bft)
28.05.2013 06:15 3,2 C 91 % 1010,4 hPa 0,0 l/m 0,0 km/h (0 Bft) N-NO 22 1,9 C 3,4 C 0,0 km/h (0 Bft)
28.05.2013 06:20 3,2 C 91 % 1010,4 hPa 0,0 l/m 0,0 km/h (0 Bft) N 360 1,9 C 3,2 C 0,0 km/h (0 Bft)
28.05.2013 06:25 3,1 C 91 % 1010,7 hPa 0,0 l/m 0,0 km/h (0 Bft) N 360 1,8 C 3,1 C 0,0 km/h (0 Bft)
28.05.2013 06:30 3,4 C 91 % 1010,7 hPa 0,0 l/m 0,0 km/h (0 Bft) NO 45 2,1 C 3,1 C 0,0 km/h (0 Bft)
28.05.2013 06:35 4,1 C 91 % 1010,7 hPa 0,0 l/m 0,0 km/h (0 Bft) N-NO 22 2,8 C 3,3 C 0,0 km/h (0 Bft)
28.05.2013 06:40 5,9 C 91 % 1010,7 hPa 0,0 l/m 0,0 km/h (0 Bft) N-NO 22 4,5 C 4,5 C 0,0 km/h (0 Bft)
28.05.2013 06:45 8,0 C 89 % 1010,6 hPa 0,0 l/m 0,0 km/h (0 Bft) N 360 6,3 C 6,1 C 0,0 km/h (0 Bft)
28.05.2013 06:50 8,6 C 87 % 1010,6 hPa 0,0 l/m 0,0 km/h (0 Bft) SO 135 6,6 C 7,7 C 2,4 km/h (1 Bft)
28.05.2013 06:55 9,6 C 85 % 1010,6 hPa 0,0 l/m 0,2 km/h (0 Bft) NW 315 7,2 C 8,8 C 0,0 km/h (0 Bft)
28.05.2013 07:00 12,3 C 76 % 1010,5 hPa 0,0 l/m 0,0 km/h (0 Bft) N 360 8,2 C 11,4 C 0,0 km/h (0 Bft)
28.05.2013 07:05 12,3 C 76 % 1010,5 hPa 0,0 l/m 0,0 km/h (0 Bft) N 360 8,2 C 11,4 C 0,0 km/h (0 Bft)
28.05.2013 07:10 14,5 C 68 % 1010,5 hPa 0,0 l/m 0,0 km/h (0 Bft) N 360 8,7 C 14,0 C 0,0 km/h (0 Bft)
28.05.2013 07:15 12,9 C 68 % 1010,5 hPa 0,0 l/m 0,0 km/h (0 Bft) S-SW 202 7,1 C 14,3 C 0,0 km/h (0 Bft)
28.05.2013 07:20 12,9 C 68 % 1010,5 hPa 0,0 l/m 0,0 km/h (0 Bft) S-SW 202 7,1 C 14,3 C 0,0 km/h (0 Bft)
28.05.2013 07:25 14,5 C 61 % 1010,2 hPa 0,0 l/m 0,0 km/h (0 Bft) N-NO 22 7,1 C 14,2 C 0,0 km/h (0 Bft)
28.05.2013 07:30 15,4 C 59 % 1010,2 hPa 0,0 l/m 0,0 km/h (0 Bft) N-NW 337 7,4 C 15,1 C 0,0 km/h (0 Bft)
28.05.2013 07:35 15,8 C 59 % 1010,2 hPa 0,0 l/m 0,0 km/h (0 Bft) NO 45 7,8 C 15,5 C 0,0 km/h (0 Bft)
28.05.2013 07:40 15,4 C 56 % 1010,2 hPa 0,0 l/m 0,2 km/h (0 Bft) N-NO 22 6,7 C 16,0 C 0,0 km/h (0 Bft)
28.05.2013 07:45 15,6 C 56 % 1010,2 hPa 0,0 l/m 0,0 km/h (0 Bft) NO 45 6,9 C 16,4 C 0,0 km/h (0 Bft)
28.05.2013 07:50 16,4 C 53 % 1010,2 hPa 0,0 l/m 0,2 km/h (0 Bft) W-NW 292 6,8 C 16,9 C 0,0 km/h (0 Bft)
28.05.2013 07:55 16,9 C 54 % 1010,2 hPa 0,0 l/m 0,3 km/h (0 Bft) W 270 7,5 C 17,1 C 1,6 km/h (1 Bft)
28.05.2013 08:00 17,8 C 55 % 1010,2 hPa 0,0 l/m 0,8 km/h (0 Bft) W-NW 292 8,6 C 16,5 C 1,9 km/h (1 Bft)
28.05.2013 08:05 17,7 C 50 % 1010,2 hPa 0,0 l/m 1,1 km/h (1 Bft) W-NW 292 7,1 C 16,8 C 2,3 km/h (1 Bft)
28.05.2013 08:10 17,5 C 49 % 1010,2 hPa 0,0 l/m 1,3 km/h (1 Bft) N-NO 22 6,7 C 17,8 C 0,0 km/h (0 Bft)
28.05.2013 08:15 17,5 C 49 % 1010,2 hPa 0,0 l/m 1,3 km/h (1 Bft) N-NO 22 6,7 C 17,8 C 0,0 km/h (0 Bft)
28.05.2013 08:20 18,3 C 50 % 1010,2 hPa 0,0 l/m 0,8 km/h (0 Bft) W 270 7,7 C 18,3 C 0,0 km/h (0 Bft)
28.05.2013 08:25 17,6 C 50 % 1010,1 hPa 0,0 l/m 0,5 km/h (0 Bft) W-NW 292 7,1 C 18,2 C 1,9 km/h (1 Bft)
28.05.2013 08:30 16,4 C 51 % 1010,1 hPa 0,0 l/m 0,5 km/h (0 Bft) W 270 6,2 C 17,6 C 0,0 km/h (0 Bft)
28.05.2013 08:35 15,7 C 56 % 1010,1 hPa 0,0 l/m 0,5 km/h (0 Bft) W 270 6,9 C 16,9 C 1,6 km/h (1 Bft)
28.05.2013 08:40 17,7 C 50 % 1010,1 hPa 0,0 l/m 0,0 km/h (0 Bft) N-NW 337 7,1 C 16,7 C 0,0 km/h (0 Bft)
28.05.2013 08:45 18,0 C 50 % 1010,1 hPa 0,0 l/m 0,0 km/h (0 Bft) W-NW 292 7,4 C 17,9 C 0,0 km/h (0 Bft)
28.05.2013 08:50 19,5 C 48 % 1010,1 hPa 0,0 l/m 0,2 km/h (0 Bft) W-NW 292 8,2 C 19,1 C 0,0 km/h (0 Bft)
28.05.2013 08:55 18,6 C 43 % 1010,1 hPa 0,0 l/m 0,5 km/h (0 Bft) W 270 5,8 C 19,7 C 1,8 km/h (1 Bft)
28.05.2013 09:00 19,0 C 44 % 1010,1 hPa 0,0 l/m 0,8 km/h (0 Bft) W-NW 292 6,5 C 20,5 C 2,9 km/h (1 Bft)
28.05.2013 09:05 19,0 C 46 % 1010,1 hPa 0,0 l/m 0,5 km/h (0 Bft) S 180 7,1 C 20,6 C 1,8 km/h (1 Bft)
28.05.2013 09:10 19,2 C 45 % 1010,1 hPa 0,0 l/m 0,8 km/h (0 Bft) N-NO 22 7,0 C 20,6 C 3,7 km/h (1 Bft)
28.05.2013 09:15 19,2 C 45 % 1010,1 hPa 0,0 l/m 0,8 km/h (0 Bft) N-NO 22 7,0 C 20,6 C 1,6 km/h (1 Bft)
28.05.2013 09:20 17,0 C 46 % 1010,1 hPa 0,0 l/m 1,3 km/h (1 Bft) N 360 5,3 C 19,9 C 4,0 km/h (1 Bft)
28.05.2013 09:25 18,7 C 45 % 1009,9 hPa 0,0 l/m 1,4 km/h (1 Bft) O 90 6,5 C 19,4 C 0,0 km/h (0 Bft)
28.05.2013 09:30 19,2 C 44 % 1009,9 hPa 0,0 l/m 1,4 km/h (1 Bft) N 360 6,7 C 20,4 C 3,4 km/h (1 Bft)
28.05.2013 09:35 18,2 C 44 % 1009,9 hPa 0,0 l/m 1,4 km/h (1 Bft) S 180 5,7 C 20,5 C 2,1 km/h (1 Bft)
28.05.2013 09:40 20,2 C 44 % 1009,9 hPa 0,0 l/m 1,9 km/h (1 Bft) W 270 7,6 C 20,0 C 5,0 km/h (1 Bft)
28.05.2013 09:45 20,3 C 41 % 1010,0 hPa 0,0 l/m 2,1 km/h (1 Bft) W-SW 247 6,6 C 20,8 C 5,3 km/h (1 Bft)
28.05.2013 09:50 20,3 C 40 % 1010,0 hPa 0,0 l/m 2,6 km/h (1 Bft) W-NW 292 6,3 C 21,0 C 2,6 km/h (1 Bft)
28.05.2013 09:55 20,4 C 40 % 1010,0 hPa 0,0 l/m 2,4 km/h (1 Bft) O 90 6,3 C 21,4 C 0,0 km/h (0 Bft)
28.05.2013 10:00 21,0 C 38 % 1010,0 hPa 0,0 l/m 2,4 km/h (1 Bft) W-SW 247 6,1 C 21,6 C 6,3 km/h (2 Bft)
28.05.2013 10:05 20,0 C 38 % 1010,1 hPa 0,0 l/m 2,1 km/h (1 Bft) S-SW 202 5,2 C 21,7 C 4,0 km/h (1 Bft)
28.05.2013 10:10 20,4 C 39 % 1010,1 hPa 0,0 l/m 2,7 km/h (1 Bft) SO 135 6,0 C 21,8 C 8,7 km/h (2 Bft)
28.05.2013 10:15 19,9 C 39 % 1010,1 hPa 0,0 l/m 3,2 km/h (1 Bft) S 180 5,5 C 21,9 C 5,6 km/h (1 Bft)
28.05.2013 10:20 19,9 C 39 % 1010,1 hPa 0,0 l/m 3,2 km/h (1 Bft) S 180 5,5 C 21,9 C 5,6 km/h (1 Bft)
28.05.2013 10:25 19,0 C 42 % 1010,1 hPa 0,0 l/m 4,5 km/h (1 Bft) W 270 5,8 C 19,5 C 6,1 km/h (2 Bft)
28.05.2013 10:30 19,0 C 42 % 1010,1 hPa 0,0 l/m 4,5 km/h (1 Bft) W 270 5,8 C 19,5 C 10,3 km/h (2 Bft)
28.05.2013 10:35 19,6 C 39 % 1010,1 hPa 0,0 l/m 3,2 km/h (1 Bft) W-NW 292 5,3 C 20,1 C 7,6 km/h (2 Bft)
28.05.2013 10:40 20,1 C 39 % 1010,1 hPa 0,0 l/m 3,1 km/h (1 Bft) S-SW 202 5,7 C 20,9 C 4,8 km/h (1 Bft)
28.05.2013 10:45 20,3 C 37 % 1010,0 hPa 0,0 l/m 3,5 km/h (1 Bft) O-SO 112 5,1 C 21,1 C 1,9 km/h (1 Bft)
28.05.2013 10:50 20,5 C 37 % 1010,0 hPa 0,0 l/m 4,3 km/h (1 Bft) S-SW 202 5,3 C 21,4 C 7,7 km/h (2 Bft)
28.05.2013 10:55 20,1 C 37 % 1010,0 hPa 0,0 l/m 5,1 km/h (1 Bft) S-SW 202 5,0 C 21,4 C 9,2 km/h (2 Bft)
28.05.2013 11:00 19,7 C 36 % 1010,0 hPa 0,0 l/m 6,6 km/h (2 Bft) W 270 4,2 C 20,0 C 11,1 km/h (2 Bft)
28.05.2013 11:05 20,5 C 36 % 1010,1 hPa 0,0 l/m 5,6 km/h (1 Bft) S-SO 157 4,9 C 20,2 C 4,0 km/h (1 Bft)
28.05.2013 11:10 20,1 C 35 % 1010,1 hPa 0,0 l/m 4,0 km/h (1 Bft) S-SW 202 4,2 C 21,0 C 8,4 km/h (2 Bft)
28.05.2013 11:15 20,1 C 35 % 1010,1 hPa 0,0 l/m 4,0 km/h (1 Bft) S-SW 202 4,2 C 21,0 C 8,4 km/h (2 Bft)
28.05.2013 11:20 20,2 C 34 % 1010,1 hPa 0,0 l/m 5,3 km/h (1 Bft) SW 225 3,8 C 20,6 C 7,9 km/h (2 Bft)
28.05.2013 11:25 21,1 C 35 % 1010,1 hPa 0,0 l/m 5,6 km/h (1 Bft) S 180 5,0 C 20,6 C 7,7 km/h (2 Bft)
28.05.2013 11:30 21,1 C 34 % 1010,1 hPa 0,0 l/m 4,7 km/h (1 Bft) NO 45 4,6 C 21,4 C 9,7 km/h (2 Bft)
28.05.2013 11:35 20,0 C 34 % 1010,1 hPa 0,0 l/m 5,1 km/h (1 Bft) W 270 3,7 C 20,8 C 5,5 km/h (1 Bft)
28.05.2013 11:40 20,6 C 35 % 1010,1 hPa 0,0 l/m 4,8 km/h (1 Bft) W-SW 247 4,6 C 20,8 C 3,7 km/h (1 Bft)
28.05.2013 11:45 20,6 C 35 % 1010,1 hPa 0,0 l/m 4,8 km/h (1 Bft) W-SW 247 4,6 C 20,8 C 3,7 km/h (1 Bft)
28.05.2013 11:50 20,6 C 34 % 1010,1 hPa 0,0 l/m 3,9 km/h (1 Bft) O 90 4,2 C 21,5 C 4,3 km/h (1 Bft)
28.05.2013 11:55 21,0 C 34 % 1010,1 hPa 0,0 l/m 4,3 km/h (1 Bft) S-SW 202 4,5 C 21,7 C 11,4 km/h (2 Bft)
28.05.2013 12:00 21,5 C 35 % 1010,1 hPa 0,0 l/m 5,1 km/h (1 Bft) N-NO 22 5,4 C 21,5 C 4,0 km/h (1 Bft)
28.05.2013 12:05 20,8 C 34 % 1009,8 hPa 0,0 l/m 4,5 km/h (1 Bft) O 90 4,4 C 22,0 C 9,5 km/h (2 Bft)
28.05.2013 12:10 21,2 C 34 % 1009,8 hPa 0,0 l/m 4,0 km/h (1 Bft) O-NO 67 4,7 C 23,1 C 6,6 km/h (2 Bft)
28.05.2013 12:15 21,2 C 34 % 1009,8 hPa 0,0 l/m 4,0 km/h (1 Bft) O-NO 67 4,7 C 23,1 C 6,6 km/h (2 Bft)
28.05.2013 12:20 20,8 C 36 % 1009,8 hPa 0,0 l/m 4,7 km/h (1 Bft) W 270 5,2 C 23,0 C 13,2 km/h (3 Bft)
28.05.2013 12:25 20,9 C 35 % 1009,9 hPa 0,0 l/m 4,7 km/h (1 Bft) O 90 4,9 C 23,2 C 0,0 km/h (0 Bft)
28.05.2013 12:30 18,5 C 37 % 1009,9 hPa 0,0 l/m 3,2 km/h (1 Bft) S 180 3,5 C 23,2 C 5,8 km/h (2 Bft)
28.05.2013 12:35 18,6 C 38 % 1009,9 hPa 0,0 l/m 3,4 km/h (1 Bft) W 270 4,0 C 21,7 C 2,6 km/h (1 Bft)
28.05.2013 12:40 18,2 C 40 % 1009,9 hPa 0,0 l/m 3,5 km/h (1 Bft) SW 225 4,4 C 20,2 C 3,2 km/h (1 Bft)
28.05.2013 12:45 18,0 C 41 % 1009,4 hPa 0,0 l/m 3,2 km/h (1 Bft) S-SW 202 4,6 C 19,7 C 3,5 km/h (1 Bft)
28.05.2013 12:50 18,3 C 42 % 1009,4 hPa 0,0 l/m 3,1 km/h (1 Bft) W 270 5,2 C 19,3 C 2,9 km/h (1 Bft)
28.05.2013 12:55 18,2 C 41 % 1009,4 hPa 0,0 l/m 3,4 km/h (1 Bft) W-SW 247 4,7 C 19,3 C 7,1 km/h (2 Bft)
28.05.2013 13:00 19,7 C 38 % 1009,4 hPa 0,0 l/m 3,2 km/h (1 Bft) S-SO 157 5,0 C 20,0 C 2,1 km/h (1 Bft)
28.05.2013 13:05 20,3 C 38 % 1009,1 hPa 0,0 l/m 3,4 km/h (1 Bft) S 180 5,5 C 21,3 C 1,8 km/h (1 Bft)
28.05.2013 13:10 21,0 C 37 % 1009,1 hPa 0,0 l/m 4,7 km/h (1 Bft) W-NW 292 5,8 C 22,4 C 10,0 km/h (2 Bft)
28.05.2013 13:15 21,0 C 37 % 1009,1 hPa 0,0 l/m 4,7 km/h (1 Bft) W-NW 292 5,8 C 22,4 C 10,0 km/h (2 Bft)
28.05.2013 13:20 18,4 C 39 % 1009,1 hPa 0,0 l/m 5,0 km/h (1 Bft) N-NW 337 4,2 C 21,0 C 5,5 km/h (1 Bft)
28.05.2013 13:25 16,9 C 44 % 1009,1 hPa 0,0 l/m 4,7 km/h (1 Bft) N 360 4,6 C 19,0 C 3,1 km/h (1 Bft)
28.05.2013 13:30 16,9 C 44 % 1009,1 hPa 0,0 l/m 4,7 km/h (1 Bft) N 360 4,6 C 19,0 C 3,1 km/h (1 Bft)
28.05.2013 13:35 18,5 C 41 % 1009,1 hPa 0,0 l/m 5,0 km/h (1 Bft) W-SW 247 5,0 C 18,8 C 6,3 km/h (2 Bft)
28.05.2013 13:40 19,1 C 40 % 1009,1 hPa 0,0 l/m 3,5 km/h (1 Bft) S-SO 157 5,2 C 20,5 C 4,5 km/h (1 Bft)
28.05.2013 13:45 19,1 C 41 % 1008,9 hPa 0,0 l/m 3,1 km/h (1 Bft) O-SO 112 5,5 C 20,7 C 0,0 km/h (0 Bft)
28.05.2013 13:50 18,7 C 41 % 1008,9 hPa 0,0 l/m 1,6 km/h (1 Bft) NO 45 5,2 C 21,4 C 1,6 km/h (1 Bft)
28.05.2013 13:55 18,6 C 42 % 1008,9 hPa 0,0 l/m 0,5 km/h (0 Bft) SO 135 5,4 C 21,6 C 2,4 km/h (1 Bft)
28.05.2013 14:00 19,4 C 41 % 1008,9 hPa 0,0 l/m 1,3 km/h (1 Bft) W-SW 247 5,8 C 22,1 C 4,5 km/h (1 Bft)
28.05.2013 14:05 20,4 C 39 % 1008,6 hPa 0,0 l/m 3,1 km/h (1 Bft) W-SW 247 6,0 C 22,2 C 6,0 km/h (2 Bft)
28.05.2013 14:10 20,2 C 38 % 1008,6 hPa 0,0 l/m 4,2 km/h (1 Bft) N 360 5,4 C 23,1 C 8,4 km/h (2 Bft)
28.05.2013 14:15 20,2 C 38 % 1008,6 hPa 0,0 l/m 4,2 km/h (1 Bft) N 360 5,4 C 23,1 C 8,4 km/h (2 Bft)
28.05.2013 14:20 19,8 C 38 % 1008,6 hPa 0,0 l/m 3,4 km/h (1 Bft) W-NW 292 5,1 C 23,2 C 2,1 km/h (1 Bft)
28.05.2013 14:25 20,9 C 38 % 1008,7 hPa 0,0 l/m 2,9 km/h (1 Bft) N-NO 22 6,0 C 23,4 C 0,0 km/h (0 Bft)
28.05.2013 14:30 19,0 C 40 % 1008,7 hPa 0,0 l/m 2,3 km/h (1 Bft) NO 45 5,1 C 23,8 C 0,0 km/h (0 Bft)
28.05.2013 14:35 19,0 C 40 % 1008,7 hPa 0,0 l/m 2,3 km/h (1 Bft) NO 45 5,1 C 23,8 C 0,0 km/h (0 Bft)
28.05.2013 14:40 18,0 C 42 % 1008,7 hPa 0,0 l/m 3,5 km/h (1 Bft) NW 315 4,9 C 21,9 C 7,2 km/h (2 Bft)
28.05.2013 14:45 18,3 C 42 % 1008,6 hPa 0,0 l/m 3,5 km/h (1 Bft) N 360 5,2 C 20,9 C 4,3 km/h (1 Bft)
28.05.2013 14:50 18,6 C 43 % 1008,6 hPa 0,0 l/m 3,2 km/h (1 Bft) W 270 5,8 C 20,4 C 0,0 km/h (0 Bft)
28.05.2013 14:55 18,3 C 45 % 1008,6 hPa 0,0 l/m 2,3 km/h (1 Bft) N-NW 337 6,2 C 20,6 C 2,9 km/h (1 Bft)
28.05.2013 15:00 19,8 C 43 % 1008,6 hPa 0,0 l/m 2,4 km/h (1 Bft) NO 45 6,9 C 20,8 C 4,2 km/h (1 Bft)
28.05.2013 15:05 19,5 C 42 % 1008,1 hPa 0,0 l/m 3,9 km/h (1 Bft) N-NW 337 6,2 C 21,6 C 8,2 km/h (2 Bft)
28.05.2013 15:10 17,8 C 44 % 1008,1 hPa 0,0 l/m 6,3 km/h (2 Bft) NW 315 5,4 C 20,1 C 10,9 km/h (2 Bft)
28.05.2013 15:15 17,8 C 44 % 1008,1 hPa 0,0 l/m 6,3 km/h (2 Bft) NW 315 5,4 C 20,1 C 10,9 km/h (2 Bft)
28.05.2013 15:20 17,4 C 46 % 1008,1 hPa 0,0 l/m 5,8 km/h (2 Bft) N 360 5,7 C 18,9 C 2,7 km/h (1 Bft)
28.05.2013 15:25 17,2 C 46 % 1007,9 hPa 0,0 l/m 4,3 km/h (1 Bft) N-NO 22 5,5 C 18,6 C 3,9 km/h (1 Bft)
28.05.2013 15:30 16,9 C 48 % 1007,9 hPa 0,0 l/m 1,6 km/h (1 Bft) O-NO 67 5,8 C 18,4 C 2,7 km/h (1 Bft)
28.05.2013 15:35 16,9 C 48 % 1007,9 hPa 0,0 l/m 1,6 km/h (1 Bft) O-NO 67 5,8 C 18,4 C 2,7 km/h (1 Bft)
28.05.2013 15:40 17,1 C 49 % 1007,9 hPa 0,0 l/m 1,4 km/h (1 Bft) W-NW 292 6,3 C 18,3 C 1,6 km/h (1 Bft)
28.05.2013 15:45 19,1 C 45 % 1007,6 hPa 0,0 l/m 2,1 km/h (1 Bft) N-NW 337 6,9 C 21,0 C 2,7 km/h (1 Bft)
28.05.2013 15:50 18,8 C 47 % 1007,6 hPa 0,0 l/m 3,7 km/h (1 Bft) N 360 7,2 C 21,8 C 10,8 km/h (2 Bft)
28.05.2013 15:55 18,8 C 47 % 1007,6 hPa 0,0 l/m 3,7 km/h (1 Bft) N 360 7,2 C 21,8 C 10,8 km/h (2 Bft)
28.05.2013 16:00 18,1 C 48 % 1007,6 hPa 0,0 l/m 4,5 km/h (1 Bft) N 360 6,9 C 21,4 C 4,0 km/h (1 Bft)
28.05.2013 16:05 18,1 C 48 % 1007,6 hPa 0,0 l/m 4,0 km/h (1 Bft) NO 45 6,9 C 20,9 C 0,0 km/h (0 Bft)
28.05.2013 16:10 18,3 C 48 % 1007,6 hPa 0,0 l/m 2,1 km/h (1 Bft) N 360 7,1 C 21,5 C 2,6 km/h (1 Bft)
28.05.2013 16:15 18,3 C 48 % 1007,6 hPa 0,0 l/m 2,1 km/h (1 Bft) N 360 7,1 C 21,5 C 2,6 km/h (1 Bft)
28.05.2013 16:20 17,1 C 48 % 1007,6 hPa 0,0 l/m 1,9 km/h (1 Bft) N 360 6,0 C 20,3 C 2,3 km/h (1 Bft)
28.05.2013 16:25 16,9 C 50 % 1007,4 hPa 0,0 l/m 1,4 km/h (1 Bft) S-SO 157 6,4 C 19,6 C 1,6 km/h (1 Bft)
28.05.2013 16:30 16,5 C 54 % 1007,4 hPa 0,0 l/m 2,4 km/h (1 Bft) N-NW 337 7,2 C 18,5 C 5,1 km/h (1 Bft)
28.05.2013 16:35 17,0 C 51 % 1007,4 hPa 0,0 l/m 1,9 km/h (1 Bft) W-NW 292 6,8 C 18,5 C 2,3 km/h (1 Bft)
28.05.2013 16:40 17,0 C 51 % 1007,4 hPa 0,0 l/m 1,9 km/h (1 Bft) W-NW 292 6,8 C 18,5 C 2,3 km/h (1 Bft)
28.05.2013 16:45 17,3 C 51 % 1007,0 hPa 0,0 l/m 2,3 km/h (1 Bft) W-NW 292 7,1 C 18,7 C 6,0 km/h (2 Bft)
28.05.2013 16:50 17,1 C 51 % 1007,0 hPa 0,0 l/m 3,7 km/h (1 Bft) N 360 6,9 C 18,6 C 6,0 km/h (2 Bft)
28.05.2013 16:55 17,1 C 53 % 1007,0 hPa 0,0 l/m 3,9 km/h (1 Bft) N 360 7,4 C 18,5 C 3,1 km/h (1 Bft)
28.05.2013 17:00 17,2 C 52 % 1006,8 hPa 0,0 l/m 3,2 km/h (1 Bft) N 360 7,3 C 18,9 C 3,1 km/h (1 Bft)
28.05.2013 17:05 17,0 C 51 % 1006,8 hPa 0,0 l/m 2,7 km/h (1 Bft) N-NW 337 6,8 C 18,8 C 4,3 km/h (1 Bft)
28.05.2013 17:10 17,0 C 54 % 1006,8 hPa 0,0 l/m 2,6 km/h (1 Bft) N 360 7,6 C 18,7 C 6,9 km/h (2 Bft)
28.05.2013 17:15 17,0 C 54 % 1006,8 hPa 0,0 l/m 2,6 km/h (1 Bft) N 360 7,6 C 18,7 C 6,9 km/h (2 Bft)
28.05.2013 17:20 17,1 C 50 % 1006,6 hPa 0,0 l/m 4,0 km/h (1 Bft) N 360 6,6 C 20,0 C 4,8 km/h (1 Bft)
28.05.2013 17:25 17,1 C 50 % 1006,6 hPa 0,0 l/m 4,0 km/h (1 Bft) N 360 6,6 C 20,0 C 4,8 km/h (1 Bft)
28.05.2013 17:30 16,7 C 50 % 1006,6 hPa 0,0 l/m 3,2 km/h (1 Bft) W-NW 292 6,2 C 19,0 C 1,8 km/h (1 Bft)
28.05.2013 17:35 16,7 C 52 % 1006,6 hPa 0,0 l/m 1,6 km/h (1 Bft) N-NO 22 6,8 C 18,5 C 0,0 km/h (0 Bft)
28.05.2013 17:40 16,6 C 53 % 1006,6 hPa 0,0 l/m 0,3 km/h (0 Bft) W 270 7,0 C 18,1 C 0,0 km/h (0 Bft)
28.05.2013 17:45 16,6 C 53 % 1006,8 hPa 0,0 l/m 0,0 km/h (0 Bft) S 180 7,0 C 18,0 C 0,0 km/h (0 Bft)
28.05.2013 17:50 16,6 C 56 % 1006,8 hPa 0,0 l/m 0,3 km/h (0 Bft) S-SO 157 7,8 C 17,9 C 2,7 km/h (1 Bft)
28.05.2013 17:55 16,6 C 56 % 1006,8 hPa 0,0 l/m 0,6 km/h (0 Bft) S 180 7,8 C 17,7 C 0,0 km/h (0 Bft)
28.05.2013 18:00 16,4 C 57 % 1006,8 hPa 0,0 l/m 1,8 km/h (1 Bft) O 90 7,9 C 17,1 C 4,8 km/h (1 Bft)
28.05.2013 18:05 15,9 C 58 % 1006,8 hPa 0,0 l/m 2,7 km/h (1 Bft) S 180 7,6 C 16,5 C 4,5 km/h (1 Bft)
28.05.2013 18:10 15,6 C 58 % 1006,8 hPa 0,0 l/m 3,1 km/h (1 Bft) O 90 7,4 C 16,0 C 1,8 km/h (1 Bft)
28.05.2013 18:15 15,6 C 58 % 1006,8 hPa 0,0 l/m 3,1 km/h (1 Bft) O 90 7,4 C 16,0 C 1,8 km/h (1 Bft)
28.05.2013 18:20 15,7 C 58 % 1006,8 hPa 0,0 l/m 1,3 km/h (1 Bft) O-SO 112 7,5 C 16,4 C 0,0 km/h (0 Bft)
28.05.2013 18:25 15,9 C 58 % 1005,9 hPa 0,0 l/m 0,6 km/h (0 Bft) O-NO 67 7,6 C 17,2 C 0,0 km/h (0 Bft)
28.05.2013 18:30 16,6 C 57 % 1005,9 hPa 0,0 l/m 0,2 km/h (0 Bft) S 180 8,0 C 18,6 C 3,4 km/h (1 Bft)
28.05.2013 18:35 17,0 C 55 % 1005,9 hPa 0,0 l/m 0,8 km/h (0 Bft) S-SW 202 7,9 C 19,2 C 1,6 km/h (1 Bft)
28.05.2013 18:40 17,4 C 54 % 1005,9 hPa 0,0 l/m 1,9 km/h (1 Bft) S 180 8,0 C 22,2 C 2,6 km/h (1 Bft)
28.05.2013 18:45 17,4 C 54 % 1005,9 hPa 0,0 l/m 1,9 km/h (1 Bft) S 180 8,0 C 22,2 C 2,6 km/h (1 Bft)
28.05.2013 18:50 17,1 C 53 % 1005,9 hPa 0,0 l/m 1,9 km/h (1 Bft) S-SO 157 7,4 C 23,0 C 0,0 km/h (0 Bft)
28.05.2013 18:55 17,0 C 52 % 1005,9 hPa 0,0 l/m 1,4 km/h (1 Bft) W-SW 247 7,1 C 23,5 C 2,3 km/h (1 Bft)
28.05.2013 19:00 16,0 C 51 % 1005,7 hPa 0,0 l/m 1,8 km/h (1 Bft) N 360 5,9 C 21,8 C 0,0 km/h (0 Bft)
28.05.2013 19:05 16,0 C 51 % 1005,7 hPa 0,0 l/m 1,8 km/h (1 Bft) N 360 5,9 C 21,8 C 0,0 km/h (0 Bft)
28.05.2013 19:10 15,6 C 56 % 1005,7 hPa 0,0 l/m 0,3 km/h (0 Bft) N-NO 22 6,9 C 18,9 C 0,0 km/h (0 Bft)
28.05.2013 19:15 15,6 C 56 % 1005,7 hPa 0,0 l/m 0,3 km/h (0 Bft) N-NO 22 6,9 C 18,9 C 0,0 km/h (0 Bft)
28.05.2013 19:20 15,2 C 56 % 1005,7 hPa 0,0 l/m 0,5 km/h (0 Bft) NO 45 6,5 C 17,8 C 2,1 km/h (1 Bft)
28.05.2013 19:25 15,2 C 57 % 1005,5 hPa 0,0 l/m 1,4 km/h (1 Bft) O 90 6,7 C 17,2 C 2,1 km/h (1 Bft)
28.05.2013 19:30 14,8 C 59 % 1005,5 hPa 0,0 l/m 1,9 km/h (1 Bft) NO 45 6,9 C 16,8 C 3,1 km/h (1 Bft)
28.05.2013 19:35 14,7 C 59 % 1005,5 hPa 0,0 l/m 1,6 km/h (1 Bft) O-NO 67 6,8 C 16,3 C 2,4 km/h (1 Bft)
28.05.2013 19:40 14,6 C 60 % 1005,5 hPa 0,0 l/m 1,3 km/h (1 Bft) O-NO 67 6,9 C 16,0 C 2,6 km/h (1 Bft)
28.05.2013 19:45 14,5 C 61 % 1005,4 hPa 0,0 l/m 0,5 km/h (0 Bft) O 90 7,1 C 15,9 C 1,9 km/h (1 Bft)
28.05.2013 19:50 14,5 C 61 % 1005,4 hPa 0,0 l/m 0,5 km/h (0 Bft) O 90 7,1 C 15,9 C 1,9 km/h (1 Bft)
28.05.2013 19:55 14,5 C 62 % 1005,4 hPa 0,0 l/m 1,1 km/h (1 Bft) O 90 7,3 C 15,8 C 2,6 km/h (1 Bft)
28.05.2013 20:00 14,7 C 62 % 1005,3 hPa 0,0 l/m 1,0 km/h (0 Bft) O-NO 67 7,5 C 16,8 C 2,9 km/h (1 Bft)
28.05.2013 20:05 14,9 C 61 % 1005,3 hPa 0,0 l/m 0,5 km/h (0 Bft) O 90 7,4 C 18,5 C 0,0 km/h (0 Bft)
28.05.2013 20:10 14,9 C 62 % 1005,3 hPa 0,0 l/m 0,3 km/h (0 Bft) N-NO 22 7,7 C 19,4 C 0,0 km/h (0 Bft)
28.05.2013 20:15 15,1 C 61 % 1005,3 hPa 0,0 l/m 0,0 km/h (0 Bft) NO 45 7,6 C 20,1 C 0,0 km/h (0 Bft)
28.05.2013 20:20 15,1 C 61 % 1005,3 hPa 0,0 l/m 0,0 km/h (0 Bft) NO 45 7,6 C 20,1 C 0,0 km/h (0 Bft)
28.05.2013 20:25 15,1 C 61 % 1005,1 hPa 0,0 l/m 0,2 km/h (0 Bft) O-NO 67 7,6 C 20,1 C 0,0 km/h (0 Bft)
28.05.2013 20:30 14,9 C 62 % 1005,1 hPa 0,0 l/m 0,3 km/h (0 Bft) O 90 7,7 C 19,0 C 0,0 km/h (0 Bft)
28.05.2013 20:35 14,7 C 62 % 1005,1 hPa 0,0 l/m 0,3 km/h (0 Bft) O 90 7,5 C 18,3 C 1,6 km/h (1 Bft)
28.05.2013 20:40 13,7 C 64 % 1005,1 hPa 0,0 l/m 0,3 km/h (0 Bft) O-NO 67 7,0 C 16,1 C 0,0 km/h (0 Bft)
28.05.2013 20:45 13,7 C 64 % 1005,1 hPa 0,0 l/m 0,3 km/h (0 Bft) O-NO 67 7,0 C 16,1 C 0,0 km/h (0 Bft)
28.05.2013 20:50 13,1 C 66 % 1005,1 hPa 0,0 l/m 0,2 km/h (0 Bft) NO 45 6,9 C 14,8 C 0,0 km/h (0 Bft)
28.05.2013 20:55 12,4 C 67 % 1005,1 hPa 0,0 l/m 0,8 km/h (0 Bft) NO 45 6,4 C 13,1 C 0,0 km/h (0 Bft)
28.05.2013 21:00 11,8 C 67 % 1004,4 hPa 0,0 l/m 0,8 km/h (0 Bft) O-NO 67 5,9 C 12,7 C 0,0 km/h (0 Bft)
28.05.2013 21:05 11,4 C 68 % 1004,4 hPa 0,0 l/m 0,0 km/h (0 Bft) O 90 5,7 C 12,0 C 0,0 km/h (0 Bft)
28.05.2013 21:10 11,4 C 68 % 1004,4 hPa 0,0 l/m 0,0 km/h (0 Bft) O 90 5,7 C 12,0 C 0,0 km/h (0 Bft)
28.05.2013 21:15 11,1 C 70 % 1004,4 hPa 0,0 l/m 0,0 km/h (0 Bft) O 90 5,8 C 11,4 C 0,0 km/h (0 Bft)
28.05.2013 21:20 11,1 C 70 % 1004,4 hPa 0,0 l/m 0,0 km/h (0 Bft) O 90 5,8 C 11,4 C 0,0 km/h (0 Bft)
28.05.2013 21:25 10,6 C 72 % 1004,4 hPa 0,0 l/m 0,0 km/h (0 Bft) NO 45 5,8 C 10,7 C 0,0 km/h (0 Bft)
28.05.2013 21:30 10,6 C 72 % 1004,4 hPa 0,0 l/m 0,0 km/h (0 Bft) NO 45 5,8 C 10,7 C 0,0 km/h (0 Bft)
28.05.2013 21:35 10,4 C 73 % 1004,4 hPa 0,0 l/m 0,0 km/h (0 Bft) SO 135 5,8 C 10,3 C 0,0 km/h (0 Bft)
28.05.2013 21:40 10,4 C 73 % 1004,4 hPa 0,0 l/m 0,0 km/h (0 Bft) SO 135 5,8 C 10,3 C 0,0 km/h (0 Bft)
28.05.2013 21:45 10,4 C 74 % 1004,4 hPa 0,0 l/m 0,0 km/h (0 Bft) NO 45 6,0 C 10,3 C 0,0 km/h (0 Bft)
28.05.2013 21:50 10,6 C 75 % 1004,4 hPa 0,0 l/m 0,0 km/h (0 Bft) O 90 6,4 C 10,5 C 0,0 km/h (0 Bft)
28.05.2013 21:55 10,6 C 75 % 1004,4 hPa 0,0 l/m 0,0 km/h (0 Bft) O 90 6,4 C 10,5 C 0,0 km/h (0 Bft)
28.05.2013 22:00 11,2 C 78 % 1004,4 hPa 0,0 l/m 2,1 km/h (1 Bft) S 180 7,5 C 11,0 C 6,4 km/h (2 Bft)
28.05.2013 22:05 11,5 C 78 % 1004,8 hPa 0,0 l/m 4,0 km/h (1 Bft) O-SO 112 7,8 C 11,3 C 10,0 km/h (2 Bft)
28.05.2013 22:10 11,7 C 76 % 1004,8 hPa 0,0 l/m 8,4 km/h (2 Bft) S-SO 157 7,6 C 9,9 C 13,7 km/h (3 Bft)
28.05.2013 22:15 11,7 C 76 % 1004,8 hPa 0,0 l/m 8,4 km/h (2 Bft) S-SO 157 7,6 C 9,9 C 10,9 km/h (2 Bft)
28.05.2013 22:20 11,4 C 76 % 1004,8 hPa 0,0 l/m 8,7 km/h (2 Bft) S 180 7,3 C 9,6 C 18,8 km/h (3 Bft)
28.05.2013 22:25 11,3 C 76 % 1005,2 hPa 0,0 l/m 6,1 km/h (2 Bft) SO 135 7,2 C 11,4 C 5,1 km/h (1 Bft)
28.05.2013 22:30 11,4 C 75 % 1005,2 hPa 0,0 l/m 5,1 km/h (1 Bft) S-SO 157 7,1 C 11,6 C 6,1 km/h (2 Bft)
28.05.2013 22:35 11,3 C 76 % 1005,2 hPa 0,0 l/m 4,7 km/h (1 Bft) SO 135 7,2 C 11,5 C 2,6 km/h (1 Bft)
28.05.2013 22:40 11,0 C 76 % 1005,2 hPa 0,0 l/m 4,0 km/h (1 Bft) NO 45 6,9 C 11,0 C 1,6 km/h (1 Bft)
28.05.2013 22:45 10,0 C 85 % 1005,2 hPa 0,0 l/m 2,7 km/h (1 Bft) O-NO 67 7,6 C 10,3 C 6,4 km/h (2 Bft)
28.05.2013 22:50 9,8 C 87 % 1005,2 hPa 0,0 l/m 2,3 km/h (1 Bft) NO 45 7,7 C 10,0 C 2,1 km/h (1 Bft)
28.05.2013 22:55 9,8 C 87 % 1005,2 hPa 0,0 l/m 2,3 km/h (1 Bft) NO 45 7,7 C 10,0 C 2,1 km/h (1 Bft)
28.05.2013 23:00 9,7 C 89 % 1005,2 hPa 0,0 l/m 2,4 km/h (1 Bft) NO 45 8,0 C 9,7 C 3,9 km/h (1 Bft)
28.05.2013 23:05 9,6 C 90 % 1005,4 hPa 0,0 l/m 2,4 km/h (1 Bft) NO 45 8,0 C 9,7 C 3,2 km/h (1 Bft)
28.05.2013 23:10 9,6 C 91 % 1005,4 hPa 0,0 l/m 1,9 km/h (1 Bft) NO 45 8,2 C 9,6 C 5,6 km/h (1 Bft)
28.05.2013 23:15 9,6 C 92 % 1005,4 hPa 0,0 l/m 2,9 km/h (1 Bft) S-SO 157 8,4 C 9,5 C 6,0 km/h (2 Bft)
28.05.2013 23:20 9,6 C 92 % 1005,4 hPa 0,0 l/m 2,9 km/h (1 Bft) S-SO 157 8,4 C 9,5 C 6,0 km/h (2 Bft)
28.05.2013 23:25 9,8 C 92 % 1005,4 hPa 0,0 l/m 3,7 km/h (1 Bft) SO 135 8,6 C 9,7 C 10,1 km/h (2 Bft)
28.05.2013 23:30 9,8 C 92 % 1005,4 hPa 0,0 l/m 3,7 km/h (1 Bft) SO 135 8,6 C 9,7 C 10,1 km/h (2 Bft)
28.05.2013 23:35 9,9 C 92 % 1005,4 hPa 0,0 l/m 7,2 km/h (2 Bft) S 180 8,7 C 8,1 C 12,2 km/h (2 Bft)
28.05.2013 23:40 9,9 C 92 % 1005,4 hPa 0,0 l/m 7,2 km/h (2 Bft) S 180 8,7 C 8,1 C 12,2 km/h (2 Bft)
28.05.2013 23:45 9,8 C 91 % 1005,3 hPa 0,0 l/m 7,9 km/h (2 Bft) S-SW 202 8,4 C 7,5 C 8,7 km/h (2 Bft)
28.05.2013 23:50 9,8 C 91 % 1005,3 hPa 0,0 l/m 7,9 km/h (2 Bft) S 180 8,4 C 7,5 C 19,6 km/h (3 Bft)
28.05.2013 23:55 9,6 C 91 % 1005,3 hPa 0,7 l/m 7,1 km/h (2 Bft) SO 135 8,2 C 8,1 C 9,3 km/h (2 Bft)
_ Min-Zeit 02:50 12:15 22:00 - 21:55 - - 02:50 03:05 21:55
Minimum _ 2,0 C 34 % 1004,4 hPa - 0,0 km/h (0 Bft) - - 0,4 C 1,4 C 0,0 km/h (0 Bft)
_ Max-Zeit 12:00 23:40 00:00 23:55 22:20 - - 07:10 14:35 23:50
Maximum _ 21,5 C 92 % 1012,2 hPa 0,7 l/m 8,7 km/h
S (2 Bft)
- - 8,7 C 23,8 C 19,6 km/h
S (3 Bft)
Durchschnitt _ 12,6 C 64 % 1008,6 hPa #0,7 l/m 1,8 km/h (1 Bft) N - 5,0 C 13,4 C 2,6 km/h (1 Bft)